RYR267Q LATI-LOWW

Flight info

Callsign RYR267Q
Flight time 1h 18m
Altitude 32000
Route INLOT DCT RETRA DCT OBUTI OBUTI2W
Aircraft B738/M-SDE3FGILRWY/SB1

Departure

Time 2026-04-25 18:10
Airport Tirana International Airport Mother Teresa (LATI)

Arrival

Time 2026-04-25 19:29
Airport Vienna International Airport (LOWW)
Time Latitude Longitude Altitude Speed Heading
2026-04-25 17:43 41.42025 19.71498 119 ft 0 kts 264°
2026-04-25 17:58 41.42026 19.71503 119 ft 2 kts 264°
2026-04-25 17:58 41.42028 19.71523 119 ft 2 kts 264°
2026-04-25 17:59 41.42029 19.71542 119 ft 2 kts 264°
2026-04-25 17:59 41.42030 19.71557 119 ft 0 kts 264°
2026-04-25 17:59 41.42034 19.71570 118 ft 1 kts 212°
2026-04-25 17:59 41.42042 19.71573 118 ft 0 kts 169°
2026-04-25 18:00 41.42048 19.71571 118 ft 0 kts 174°
2026-04-25 18:04 41.42020 19.71575 119 ft 5 kts 174°
2026-04-25 18:04 41.41972 19.71582 119 ft 8 kts 174°
2026-04-25 18:04 41.41903 19.71591 119 ft 11 kts 175°
2026-04-25 18:04 41.41811 19.71603 120 ft 15 kts 174°
2026-04-25 18:05 41.41694 19.71618 122 ft 17 kts 175°
2026-04-25 18:05 41.41581 19.71631 123 ft 15 kts 174°
2026-04-25 18:05 41.41477 19.71644 124 ft 14 kts 175°
2026-04-25 18:05 41.41367 19.71659 125 ft 22 kts 174°
2026-04-25 18:06 41.41202 19.71682 127 ft 23 kts 174°
2026-04-25 18:06 41.41046 19.71703 128 ft 21 kts 174°
2026-04-25 18:06 41.40899 19.71730 128 ft 20 kts 169°
2026-04-25 18:06 41.40762 19.71759 129 ft 19 kts 173°
2026-04-25 18:07 41.40630 19.71777 130 ft 18 kts 174°
2026-04-25 18:07 41.40498 19.71794 131 ft 18 kts 175°
2026-04-25 18:07 41.40376 19.71838 131 ft 17 kts 147°
2026-04-25 18:07 41.40275 19.71939 132 ft 18 kts 138°
2026-04-25 18:08 41.40244 19.72066 132 ft 0 kts 84°
2026-04-25 18:08 41.40250 19.72120 132 ft 12 kts 80°
2026-04-25 18:09 41.40290 19.72207 132 ft 11 kts
2026-04-25 18:09 41.40318 19.72204 132 ft 0 kts 354°
2026-04-25 18:09 41.40321 19.72204 132 ft 3 kts 354°
2026-04-25 18:10 41.40764 19.72142 130 ft 91 kts 354°
2026-04-25 18:10 41.41605 19.72037 123 ft 149 kts 354°
2026-04-25 18:10 41.42722 19.71889 493 ft 165 kts 354°
2026-04-25 18:10 41.43869 19.71765 1139 ft 169 kts 355°
2026-04-25 18:11 41.45055 19.71637 1725 ft 177 kts 356°
2026-04-25 18:11 41.46328 19.71493 2125 ft 191 kts 356°
2026-04-25 18:11 41.47686 19.71335 2537 ft 204 kts 356°
2026-04-25 18:11 41.49146 19.71166 2933 ft 218 kts 356°
2026-04-25 18:12 41.50729 19.70985 3299 ft 236 kts 356°
2026-04-25 18:12 41.52391 19.70793 3775 ft 248 kts 356°
2026-04-25 18:12 41.54149 19.70591 4247 ft 260 kts 356°
2026-04-25 18:12 41.55976 19.70380 4864 ft 266 kts 356°
2026-04-25 18:13 41.57811 19.70110 5497 ft 271 kts 348°
2026-04-25 18:13 41.59582 19.69252 6182 ft 274 kts 335°
2026-04-25 18:13 41.61296 19.68067 6874 ft 278 kts 333°
2026-04-25 18:14 41.64757 19.65728 8318 ft 281 kts 336°
2026-04-25 18:14 41.66519 19.64630 9047 ft 283 kts 336°
2026-04-25 18:14 41.68316 19.63534 9771 ft 286 kts 336°
2026-04-25 18:14 41.70127 19.62434 10450 ft 291 kts 336°
2026-04-25 18:15 41.72000 19.61295 10854 ft 306 kts 336°
2026-04-25 18:15 41.73993 19.60078 11275 ft 320 kts 336°
2026-04-25 18:15 41.76040 19.58827 11812 ft 330 kts 336°
2026-04-25 18:15 41.78152 19.57532 12498 ft 335 kts 336°
2026-04-25 18:16 41.80258 19.56241 13226 ft 338 kts 336°
2026-04-25 18:16 41.82406 19.54922 14018 ft 340 kts 336°
2026-04-25 18:16 41.86732 19.52263 15509 ft 347 kts 336°
2026-04-25 18:17 41.88915 19.50921 16254 ft 350 kts 336°
2026-04-25 18:17 41.91137 19.49553 16951 ft 353 kts 336°
2026-04-25 18:17 41.93354 19.48188 17645 ft 356 kts 336°
2026-04-25 18:17 41.95618 19.46793 18332 ft 360 kts 336°
2026-04-25 18:18 41.97886 19.45401 19002 ft 363 kts 336°
2026-04-25 18:18 42.00228 19.44113 19651 ft 367 kts 339°
2026-04-25 18:18 42.02630 19.42942 20325 ft 369 kts 341°
2026-04-25 18:18 42.05066 19.41814 20916 ft 373 kts 341°
2026-04-25 18:19 42.07542 19.40680 21583 ft 375 kts 341°
2026-04-25 18:19 42.09992 19.39554 22172 ft 378 kts 341°
2026-04-25 18:19 42.12510 19.38386 22772 ft 381 kts 341°
2026-04-25 18:19 42.15035 19.37203 23366 ft 383 kts 341°
2026-04-25 18:20 42.17552 19.36017 23910 ft 387 kts 341°
2026-04-25 18:20 42.20106 19.34808 24406 ft 391 kts 340°
2026-04-25 18:20 42.22677 19.33551 24935 ft 394 kts 338°
2026-04-25 18:20 42.25210 19.32072 25403 ft 398 kts 334°
2026-04-25 18:21 42.27676 19.30444 25894 ft 401 kts 333°
2026-04-25 18:21 42.30162 19.28721 26322 ft 405 kts 332°
2026-04-25 18:21 42.32657 19.26966 26795 ft 408 kts 332°
2026-04-25 18:21 42.35175 19.25195 27255 ft 410 kts 332°
2026-04-25 18:22 42.37722 19.23414 27820 ft 410 kts 333°
2026-04-25 18:22 42.38560 19.22830 28062 ft 408 kts 333°
2026-04-25 18:22 42.42756 19.19919 29092 ft 405 kts 333°
2026-04-25 18:22 42.45255 19.18194 29636 ft 404 kts 333°
2026-04-25 18:23 42.47737 19.16483 30171 ft 403 kts 333°
2026-04-25 18:23 42.50223 19.14770 30670 ft 402 kts 333°
2026-04-25 18:23 42.52707 19.13059 31214 ft 400 kts 333°
2026-04-25 18:23 42.55147 19.11377 31743 ft 397 kts 333°
2026-04-25 18:24 42.57629 19.09665 32052 ft 399 kts 333°
2026-04-25 18:24 42.62579 19.06247 32065 ft 396 kts 333°
2026-04-25 18:25 42.67486 19.02853 32070 ft 396 kts 333°
2026-04-25 18:25 42.72392 18.99453 32071 ft 396 kts 333°
2026-04-25 18:26 42.77314 18.96035 32077 ft 396 kts 333°
2026-04-25 18:26 42.82222 18.92621 32089 ft 396 kts 332°
2026-04-25 18:27 42.87134 18.89199 32083 ft 396 kts 332°
2026-04-25 18:27 42.91987 18.85812 32090 ft 395 kts 332°
2026-04-25 18:28 42.96913 18.82368 32091 ft 396 kts 332°
2026-04-25 18:28 43.01801 18.78944 32093 ft 396 kts 332°
2026-04-25 18:29 43.09151 18.73783 32102 ft 395 kts 332°
2026-04-25 18:30 43.18644 18.66239 32109 ft 395 kts 329°
2026-04-25 18:30 43.23560 18.62920 32108 ft 395 kts 334°
2026-04-25 18:31 43.28533 18.59775 32103 ft 395 kts 333°
2026-04-25 18:31 43.33472 18.56486 32093 ft 395 kts 332°
2026-04-25 18:32 43.38383 18.53087 32090 ft 394 kts 332°
2026-04-25 18:32 43.43247 18.49614 32083 ft 394 kts 331°
2026-04-25 18:33 43.48111 18.46164 32069 ft 394 kts 331°
2026-04-25 18:33 43.52985 18.42702 32058 ft 394 kts 331°
2026-04-25 18:34 43.57819 18.39253 32062 ft 394 kts 331°
2026-04-25 18:34 43.62698 18.35760 32056 ft 394 kts 331°
2026-04-25 18:35 43.67536 18.32288 32055 ft 394 kts 330°
2026-04-25 18:35 43.72400 18.28790 32056 ft 394 kts 330°
2026-04-25 18:36 43.77233 18.25308 32054 ft 393 kts 330°
2026-04-25 18:36 43.82071 18.21816 32051 ft 392 kts 330°
2026-04-25 18:37 43.86892 18.18330 32047 ft 392 kts 330°
2026-04-25 18:37 43.91758 18.14804 32043 ft 393 kts 330°
2026-04-25 18:38 43.96595 18.11292 32035 ft 394 kts 330°
2026-04-25 18:38 44.01431 18.07776 32034 ft 394 kts 330°
2026-04-25 18:39 44.06364 18.04179 32037 ft 404 kts 330°
2026-04-25 18:39 44.11409 18.00494 32037 ft 418 kts 330°
2026-04-25 18:40 44.16666 17.96645 32038 ft 434 kts 330°
2026-04-25 18:40 44.22112 17.92652 32035 ft 448 kts 330°
2026-04-25 18:41 44.27605 17.88622 32032 ft 447 kts 330°
2026-04-25 18:41 44.33139 17.84553 32029 ft 453 kts 330°
2026-04-25 18:42 44.37785 17.81128 32035 ft 454 kts 330°
2026-04-25 18:42 44.44265 17.76343 32038 ft 452 kts 330°
2026-04-25 18:43 44.49822 17.72228 32041 ft 451 kts 329°
2026-04-25 18:43 44.55338 17.68134 32035 ft 452 kts 329°
2026-04-25 18:44 44.60895 17.63999 32027 ft 452 kts 329°
2026-04-25 18:44 44.66439 17.59866 32022 ft 452 kts 329°
2026-04-25 18:45 44.71998 17.55712 32013 ft 452 kts 329°
2026-04-25 18:45 44.77528 17.51573 32002 ft 451 kts 329°
2026-04-25 18:46 44.83056 17.47423 32000 ft 452 kts 329°
2026-04-25 18:46 44.88600 17.43253 31993 ft 451 kts 329°
2026-04-25 18:47 44.94136 17.39080 31992 ft 450 kts 329°
2026-04-25 18:47 44.99650 17.34914 31986 ft 451 kts 328°
2026-04-25 18:48 45.05210 17.30705 31985 ft 450 kts 328°
2026-04-25 18:48 45.10715 17.26528 31989 ft 451 kts 328°
2026-04-25 18:49 45.16260 17.22310 31990 ft 450 kts 328°
2026-04-25 18:49 45.21773 17.18108 31994 ft 450 kts 328°
2026-04-25 18:50 45.27300 17.13886 31993 ft 450 kts 328°
2026-04-25 18:50 45.32822 17.09660 31993 ft 449 kts 328°
2026-04-25 18:51 45.37397 17.06151 31998 ft 450 kts 328°
2026-04-25 18:51 45.43788 17.01239 31993 ft 449 kts 328°
2026-04-25 18:52 45.49245 16.97037 31991 ft 435 kts 328°
2026-04-25 18:52 45.54529 16.92963 31991 ft 431 kts 328°
2026-04-25 18:53 45.59812 16.88868 31979 ft 433 kts 328°
2026-04-25 18:53 45.65087 16.84773 31978 ft 433 kts 328°
2026-04-25 18:54 45.72994 16.78622 31974 ft 433 kts 328°
2026-04-25 18:55 45.78289 16.74493 31971 ft 433 kts 327°
2026-04-25 18:55 45.83560 16.70373 31969 ft 433 kts 327°
2026-04-25 18:56 45.88827 16.66247 31970 ft 433 kts 327°
2026-04-25 18:56 45.94098 16.62110 31967 ft 432 kts 327°
2026-04-25 18:57 45.99388 16.57947 31974 ft 434 kts 327°
2026-04-25 18:57 46.04635 16.53811 31970 ft 433 kts 327°
2026-04-25 18:58 46.09925 16.49632 31973 ft 432 kts 327°
2026-04-25 18:58 46.17825 16.43373 31976 ft 432 kts 327°
2026-04-25 18:59 46.28325 16.35022 31976 ft 432 kts 327°
2026-04-25 19:00 46.36326 16.28895 31980 ft 434 kts 331°
2026-04-25 19:01 46.42065 16.26283 31977 ft 426 kts 343°
2026-04-25 19:01 46.44936 16.25485 31976 ft 412 kts 345°
2026-04-25 19:01 46.47713 16.24838 31825 ft 401 kts 346°
2026-04-25 19:01 46.50420 16.24255 31675 ft 389 kts 346°
2026-04-25 19:02 46.55662 16.23126 30976 ft 377 kts 345°
2026-04-25 19:02 46.58256 16.22544 30541 ft 374 kts 345°
2026-04-25 19:02 46.60793 16.21962 30110 ft 371 kts 345°
2026-04-25 19:03 46.64164 16.21175 29495 ft 367 kts 345°
2026-04-25 19:03 46.68336 16.20189 28803 ft 360 kts 345°
2026-04-25 19:03 46.70793 16.19605 28367 ft 357 kts 345°
2026-04-25 19:04 46.75621 16.18452 27524 ft 351 kts 345°
2026-04-25 19:04 46.78017 16.17878 27099 ft 348 kts 345°
2026-04-25 19:05 46.82758 16.16742 26246 ft 342 kts 346°
2026-04-25 19:05 46.87376 16.15633 25412 ft 336 kts 346°
2026-04-25 19:05 46.89691 16.15076 24993 ft 333 kts 346°
2026-04-25 19:06 46.91957 16.14532 24571 ft 330 kts 346°
2026-04-25 19:06 46.96421 16.13457 23984 ft 322 kts 346°
2026-04-25 19:06 46.98639 16.12919 23988 ft 332 kts 346°
2026-04-25 19:07 47.03278 16.11788 23986 ft 339 kts 346°
2026-04-25 19:07 47.05597 16.11230 23763 ft 336 kts 346°
2026-04-25 19:08 47.10168 16.10130 22815 ft 332 kts 346°
2026-04-25 19:08 47.12462 16.09575 22350 ft 330 kts 346°
2026-04-25 19:09 47.19174 16.07945 20964 ft 325 kts 347°
2026-04-25 19:09 47.20676 16.07642 20660 ft 325 kts 352°
2026-04-25 19:09 47.25856 16.08973 19634 ft 332 kts 21°
2026-04-25 19:10 47.27842 16.10712 19224 ft 333 kts 32°
2026-04-25 19:10 47.29671 16.12757 18781 ft 332 kts 34°
2026-04-25 19:10 47.31466 16.14831 18343 ft 330 kts 33°
2026-04-25 19:10 47.33310 16.16841 18010 ft 325 kts 31°
2026-04-25 19:11 47.35152 16.18681 17833 ft 318 kts 29°
2026-04-25 19:11 47.37017 16.20413 17511 ft 318 kts 27°
2026-04-25 19:11 47.38922 16.22104 17257 ft 323 kts 26°
2026-04-25 19:11 47.40839 16.23777 17007 ft 322 kts 26°
2026-04-25 19:12 47.42778 16.25468 16756 ft 319 kts 26°
2026-04-25 19:12 47.44662 16.27113 16510 ft 320 kts 26°
2026-04-25 19:12 47.46577 16.28788 16264 ft 322 kts 26°
2026-04-25 19:12 47.48499 16.30474 16019 ft 320 kts 26°
2026-04-25 19:13 47.50400 16.32147 15767 ft 318 kts 26°
2026-04-25 19:13 47.52288 16.33809 15512 ft 316 kts 26°
2026-04-25 19:13 47.54183 16.35480 15265 ft 315 kts 26°
2026-04-25 19:13 47.56046 16.37121 15022 ft 314 kts 26°
2026-04-25 19:14 47.57919 16.38773 14773 ft 312 kts 26°
2026-04-25 19:14 47.58555 16.39335 14688 ft 311 kts 26°
2026-04-25 19:14 47.61621 16.42043 14285 ft 310 kts 26°
2026-04-25 19:14 47.63488 16.43694 14029 ft 308 kts 26°
2026-04-25 19:15 47.65317 16.45314 13793 ft 307 kts 26°
2026-04-25 19:15 47.67136 16.46924 13553 ft 306 kts 26°
2026-04-25 19:15 47.68944 16.48527 13305 ft 305 kts 26°
2026-04-25 19:15 47.70779 16.50155 13041 ft 304 kts 26°
2026-04-25 19:16 47.72584 16.51757 12776 ft 302 kts 26°
2026-04-25 19:16 47.74382 16.53357 12535 ft 301 kts 26°
2026-04-25 19:16 47.76168 16.54946 12282 ft 300 kts 26°
2026-04-25 19:16 47.77947 16.56530 12036 ft 298 kts 25°
2026-04-25 19:17 47.79720 16.58110 11635 ft 297 kts 26°
2026-04-25 19:17 47.81471 16.59671 11202 ft 296 kts 25°
2026-04-25 19:17 47.83228 16.61238 10823 ft 295 kts 25°
2026-04-25 19:17 47.84952 16.62870 10449 ft 295 kts 31°
2026-04-25 19:18 47.86415 16.65010 10064 ft 301 kts 53°
2026-04-25 19:18 47.87315 16.67852 9715 ft 303 kts 67°
2026-04-25 19:18 47.87951 16.70837 9269 ft 304 kts 70°
2026-04-25 19:18 47.88560 16.73874 8761 ft 309 kts 70°
2026-04-25 19:19 47.89194 16.76894 8196 ft 313 kts 69°
2026-04-25 19:19 47.89881 16.80011 7590 ft 318 kts 69°
2026-04-25 19:19 47.90435 16.83135 7347 ft 310 kts 74°
2026-04-25 19:19 47.90776 16.85215 7298 ft 300 kts 72°
2026-04-25 19:20 47.91472 16.89140 6983 ft 294 kts 71°
2026-04-25 19:20 47.92001 16.92042 6498 ft 292 kts 71°
2026-04-25 19:20 47.92525 16.94939 6011 ft 285 kts 71°
2026-04-25 19:20 47.93029 16.97741 5522 ft 278 kts 71°
2026-04-25 19:21 47.93675 17.00363 4995 ft 267 kts 53°
2026-04-25 19:21 47.96559 17.02349 3969 ft 225 kts 341°
2026-04-25 19:21 47.97852 17.01235 3461 ft 215 kts 318°
2026-04-25 19:22 47.98592 16.99396 2999 ft 208 kts 280°
2026-04-25 19:22 47.98563 16.97305 2970 ft 196 kts 272°
2026-04-25 19:22 47.99176 16.93259 2980 ft 203 kts 295°
2026-04-25 19:23 47.99760 16.91355 2989 ft 202 kts 297°
2026-04-25 19:23 48.01019 16.87510 2988 ft 210 kts 297°
2026-04-25 19:23 48.01666 16.85557 2980 ft 209 kts 297°
2026-04-25 19:24 48.02290 16.83670 2983 ft 197 kts 297°
2026-04-25 19:24 48.02866 16.81926 2975 ft 176 kts 297°
2026-04-25 19:24 48.03913 16.78775 2993 ft 167 kts 297°
2026-04-25 19:25 48.04938 16.75671 3002 ft 166 kts 297°
2026-04-25 19:25 48.05443 16.74133 3009 ft 164 kts 297°
2026-04-25 19:25 48.05957 16.72576 2829 ft 163 kts 297°
2026-04-25 19:26 48.06436 16.71129 2533 ft 149 kts 297°
2026-04-25 19:26 48.06877 16.69789 2377 ft 143 kts 297°
2026-04-25 19:26 48.07322 16.68438 2182 ft 144 kts 296°
2026-04-25 19:26 48.07762 16.67110 1995 ft 142 kts 296°
2026-04-25 19:27 48.08179 16.65831 1776 ft 131 kts 295°
2026-04-25 19:27 48.08441 16.65040 1690 ft 128 kts 296°
2026-04-25 19:27 48.08972 16.63427 1462 ft 128 kts 296°
2026-04-25 19:27 48.09363 16.62233 1301 ft 130 kts 296°
2026-04-25 19:28 48.09765 16.61013 1128 ft 132 kts 296°
2026-04-25 19:28 48.10175 16.59771 953 ft 132 kts 295°
2026-04-25 19:28 48.10587 16.58510 777 ft 135 kts 296°
2026-04-25 19:28 48.11004 16.57255 623 ft 128 kts 297°
2026-04-25 19:29 48.11329 16.56253 608 ft 79 kts 295°
2026-04-25 19:29 48.11524 16.55656 608 ft 46 kts 296°
2026-04-25 19:29 48.11698 16.55286 608 ft 31 kts 316°
2026-04-25 19:29 48.11818 16.55146 608 ft 3 kts 340°
2026-04-25 19:30 48.11819 16.55146 607 ft 0 kts 340°
2026-04-25 19:30 48.11821 16.55145 607 ft 2 kts 342°
2026-04-25 19:30 48.11847 16.55141 608 ft 3 kts
2026-04-25 19:31 48.11897 16.55163 607 ft 10 kts 22°
2026-04-25 19:31 48.11959 16.55184 607 ft 7 kts 356°
2026-04-25 19:31 48.12007 16.55186 607 ft 6 kts 18°
2026-04-25 19:31 48.12046 16.55211 608 ft 5 kts 24°
2026-04-25 19:32 48.12080 16.55237 608 ft 5 kts 33°
2026-04-25 19:32 48.12078 16.55265 608 ft 4 kts 131°
2026-04-25 19:32 48.12059 16.55303 607 ft 4 kts 120°
2026-04-25 19:32 48.12053 16.55320 607 ft 0 kts 118°